This is the latest recevied weather packets stored in our database for station/object W2OBX. If no packets are shown the sender has not sent any weather packets the latest 10 day(s).
| Time | Temp. | Humidity | Pressure | Rain* | Wind** | Luminosity | Snow |
|---|---|---|---|---|---|---|---|
| 1777607585 | 9.44° C | 79% | 1015.6 hPa | 0 mm | - | 0 W/m² | - |
| 1777607283 | 9.44° C | 79% | 1015.7 hPa | 0 mm | - | 0 W/m² | - |
| 1777606978 | 9.44° C | 80% | 1015.6 hPa | 0 mm | - | 0 W/m² | - |
| 1777606674 | 9.44° C | 79% | 1015.6 hPa | 0 mm | - | 0 W/m² | - |
| 1777606370 | 10° C | 76% | 1015.3 hPa | 0 mm | - | 0 W/m² | - |
| 1777606070 | 10° C | 78% | 1015.6 hPa | 0 mm | - | 0 W/m² | - |
| 1777605766 | 10° C | 78% | 1015.5 hPa | 0 mm | - | 0 W/m² | - |
| 1777605464 | 10° C | 77% | 1015.6 hPa | 0 mm | - | 0 W/m² | - |
| 1777605163 | 10° C | 79% | 1015.7 hPa | 0 mm | - | 0 W/m² | - |
| 1777604857 | 10° C | 80% | 1015.4 hPa | 0 mm | - | 0 W/m² | - |
| 1777604554 | 10° C | 81% | 1015.5 hPa | 0 mm | - | 0 W/m² | - |
| 1777604249 | 10.56° C | 80% | 1015.3 hPa | 0 mm | - | 0 W/m² | - |
| 1777603945 | 10.56° C | 79% | 1015.4 hPa | 0 mm | - | 0 W/m² | - |
| 1777603643 | 10.56° C | 78% | 1015.4 hPa | 0 mm | - | 0 W/m² | - |
| 1777603339 | 11.11° C | 73% | 1015.3 hPa | 0 mm | - | 0 W/m² | - |
| 1777603035 | 11.11° C | 74% | 1015.2 hPa | 0 mm | - | 0 W/m² | - |
| 1777602730 | 11.11° C | 74% | 1015.3 hPa | 0 mm | - | 0 W/m² | - |
| 1777602424 | 11.11° C | 71% | 1015.1 hPa | 0 mm | - | 0 W/m² | - |
| 1777602121 | 11.11° C | 69% | 1015.1 hPa | 0 mm | - | 0 W/m² | - |
| 1777601816 | 11.11° C | 72% | 1015.3 hPa | 0 mm | - | 0 W/m² | - |
| 1777601512 | 11.11° C | 73% | 1015 hPa | 0 mm | - | 0 W/m² | - |
| 1777601207 | 11.11° C | 70% | 1014.9 hPa | 0 mm | - | 0 W/m² | - |
| 1777600905 | 11.11° C | 69% | 1014.9 hPa | 0 mm | - | 0 W/m² | - |
| 1777600600 | 11.67° C | 73% | 1015 hPa | 0 mm | - | 0 W/m² | - |
| 1777600297 | 11.67° C | 72% | 1014.9 hPa | 0 mm | - | 0 W/m² | - |
* Rain latest hour (hover to see other rain measurements)
** Current wind speed in m/s (hover to see current wind gust speed)